Weather History for Middletown, PA

Change the Weather History Date:

Saturday, November 12, 2011

  Actual Average Record
Temperature  
Mean Temperature 45 °F 46 °F  
Max Temperature 59 °F 55 °F 73 °F (1964)
Min Temperature 31 °F 36 °F 22 °F (1957)
Degree Days  
Heating Degree Days 20 19  
Month to date heating degree days 225 210  
Since 1 July heating degree days 608 622  
Cooling Degree Days 0 0  
Month to date cooling degree days 0 0  
Year to date cooling degree days 1246 1002  
Moisture  
Dew Point 29 °F    
Average Humidity 56    
Maximum Humidity 79    
Minimum Humidity 33    
Precipitation  
Precipitation 0.00 in 0.10 in 2.36 in (1925)
Month to date precipitation 0.14 1.21  
Year to date precipitation 66.11 35.49  
Snow  
Snow 0.00 in - - ()
Month to date snowfall 0.0  
Since 1 July snowfall 5.5  
Since 1 September snowfall 5.5  
Snow Depth 0.00 in    
Sea Level Pressure  
Sea Level Pressure 30.08 in    
Wind  
Wind Speed 6 mph (SSW)    
Max Wind Speed 15 mph    
Max Gust Speed 28 mph    
Visibility 10 miles    
Events      
T = Trace of Precipitation, MM = Missing Value Source: NWS Daily Summary

Daily Weather History Graph

Daily Weather History Graph

Search for Another Location

Airport:

Trip Planner

Search our weather history database for the weather conditions in past years. The results will help you decide how hot, cold, wet, or windy it might be!

Date:

Astronomy

Nov. 12, 2011 Rise Set
Actual Time 6:48 AM EST 4:53 PM EST
Civil Twilight 6:19 AM EST 5:21 PM EST
Nautical Twilight 5:47 AM EST 5:54 PM EST
Astronomical Twilight 5:15 AM EST 6:26 PM EST
Moon 6:07 PM EST (11/12) 8:29 AM EST (11/12)
Length of Visible Light 11h 01m
Length of Day
10h 04m
Full, 97% of the Moon is Illuminated
Nov 12
Full
Nov 18
Last Quarter
Nov 25
New
Dec 2
First Quarter
Dec 10
Full

Hourly Weather History & Observations

Time (EST) Temp. Windchill Dew Point Humidity Pressure Visibility Wind Dir Wind Speed Gust Speed Precip Events Conditions
12:56 AM 39.9 °F 32.9 °F 25.0 °F 55% 30.09 in 10.0 mi SW 11.5 mph - N/A   Partly Cloudy
1:56 AM 39.9 °F 32.5 °F 26.1 °F 58% 30.11 in 10.0 mi WSW 12.7 mph - N/A   Clear
2:56 AM 34.0 °F 31.0 °F 25.0 °F 70% 30.11 in 10.0 mi NE 3.5 mph - N/A   Clear
3:56 AM 32.0 °F - 26.1 °F 79% 30.10 in 10.0 mi Calm Calm - N/A   Clear
4:56 AM 37.0 °F 31.6 °F 25.0 °F 62% 30.10 in 10.0 mi SSW 6.9 mph - N/A   Clear
5:56 AM 35.1 °F 32.2 °F 24.1 °F 64% 30.09 in 10.0 mi West 3.5 mph - N/A   Partly Cloudy
6:56 AM 37.0 °F 32.4 °F 24.1 °F 59% 30.10 in 10.0 mi WSW 5.8 mph 18.4 mph N/A   Mostly Cloudy
7:56 AM 37.4 °F 32.1 °F 24.8 °F 60% 30.10 in 10.0 mi Variable 6.9 mph - N/A   Mostly Cloudy
8:56 AM 41.0 °F 37.1 °F 25.0 °F 53% 30.11 in 10.0 mi South 5.8 mph - N/A   Scattered Clouds
9:56 AM 45.0 °F 40.6 °F 25.0 °F 46% 30.10 in 10.0 mi South 8.1 mph - N/A   Scattered Clouds
10:56 AM 48.0 °F - 27.0 °F 44% 30.09 in 10.0 mi SW 9.2 mph - N/A   Clear
11:56 AM 53.1 °F - 28.9 °F 40% 30.07 in 10.0 mi SSW 8.1 mph - N/A   Clear
12:56 PM 57.0 °F - 28.0 °F 33% 30.05 in 10.0 mi Calm Calm - N/A   Partly Cloudy
1:56 PM 59.0 °F - 30.9 °F 35% 30.04 in 10.0 mi Variable 3.5 mph - N/A   Partly Cloudy
2:56 PM 57.9 °F - 33.1 °F 39% 30.04 in 10.0 mi SSW 6.9 mph - N/A   Partly Cloudy
3:56 PM 57.2 °F - 32.0 °F 38% 30.04 in 10.0 mi SW 11.5 mph - N/A   Partly Cloudy
4:56 PM 55.0 °F - 33.1 °F 43% 30.06 in 10.0 mi SSW 9.2 mph - N/A   Partly Cloudy
5:56 PM 53.1 °F - 34.0 °F 48% 30.07 in 10.0 mi South 10.4 mph - N/A   Partly Cloudy
6:56 PM 53.1 °F - 34.0 °F 48% 30.08 in 10.0 mi SSW 6.9 mph - N/A   Mostly Cloudy
7:56 PM 46.0 °F 44.8 °F 33.1 °F 61% 30.09 in 10.0 mi ENE 3.5 mph - N/A   Scattered Clouds
8:56 PM 42.1 °F - 33.1 °F 70% 30.10 in 10.0 mi Calm Calm - N/A   Scattered Clouds
9:56 PM 42.8 °F 41.1 °F 35.6 °F 76% 30.10 in 10.0 mi South 3.5 mph - N/A   Mostly Cloudy
10:56 PM 39.2 °F 37.0 °F 33.8 °F 81% 30.09 in 10.0 mi SSE 3.5 mph - N/A   Partly Cloudy
11:56 PM 36.0 °F - 33.1 °F 89% 30.11 in 10.0 mi Calm Calm - N/A   Scattered Clouds